This demonstration page uses our WeatherBlox Daily Observations layout. Learn more.

Left ArrowRight Arrow

Hourly Observations for March 24, 2018

Temp ( °F °C ) Dew Point ( °F °C ) Humidity (%) Winds ( mph kmh ) Pressure ( in mb ) Visibility ( mi km ) Precip ( " mm )
12:53 am 00:53 Cloudy 47 8.3 42 5.6 83 83 SSW 12 19 29.99 1016 10 16 0.02 0.51
1:53 am 01:53 Mostly Clear 45 7.2 40 4.4 83 83 WSW 7 11 30.01 1016 10 16 0.00 0.00
2:53 am 02:53 Clear 42 5.6 35 1.7 76 76 SSW 3 6 30.01 1016 10 16 0.00 0.00
3:53 am 03:53 Clear 39 3.9 35 1.7 86 86 Calm 30.01 1016 10 16 0.00 0.00
4:53 am 04:53 Clear 36 2.2 34 1.1 93 93 Calm 30.01 1016 10 16 0.00 0.00
5:53 am 05:53 Clear 34 1.1 33 0.6 97 97 Calm 30.02 1017 10 16 0.00 0.00
6:53 am 06:53 Mostly Cloudy 34 1.1 33 0.6 97 97 NW 3 6 30.02 1017 10 16 0.00 0.00
7:53 am 07:53 Cloudy 37 2.8 35 1.7 93 93 NW 6 9 30.04 1017 10 16 0.00 0.00
8:02 am 08:02 Cloudy 37 2.8 35 1.7 93 93 NNW 5 7 30.03 1017 10 16 0.00 0.00
8:53 am 08:53 Cloudy with Light Rain 40 4.4 37 2.8 89 89 N 3 6 30.03 1017 10 16 0.01 0.25
9:53 am 09:53 Cloudy 43 6.1 37 2.8 80 80 Calm 30.02 1017 10 16 0.00 0.03
10:37 am 10:37 Mostly Cloudy 45 7.2 39 3.9 80 80 Calm 30.03 1017 10 16 0.00 0.00
10:48 am 10:48 Mostly Cloudy 46 8 37 3 71 71 VRB 3 6 30.03 1017 10 16 0.00 0.00
10:53 am 10:53 Partly Cloudy 47 8.3 38 3.3 71 71 Calm 30.02 1017 10 16 0.00 0.00
11:14 am 11:14 Mostly Cloudy 46 7.8 37 2.8 71 71 VRB 3 6 30.00 1016 10 16 0.00 0.00
11:36 am 11:36 Partly Cloudy 48 8.9 38 3.3 68 68 Calm 30.00 1016 10 16 0.00 0.00
11:53 am 11:53 Mostly Cloudy 48 8.9 38 3.3 68 68 Calm 30.00 1016 10 16 0.00 0.00
12:53 pm 12:53 Cloudy 53 11.7 34 1.1 48 48 SSE 17 28 29.97 1015 10 16 0.00 0.00
1:53 pm 13:53 Partly Cloudy 53 11.7 33 0.6 47 47 SSE 10 17 29.95 1014 10 16 0.00 0.00
2:53 pm 14:53 Mostly Sunny 55 12.8 32 0 42 42 SSW 14 22 29.92 1013 10 16 0.00 0.00
3:53 pm 15:53 Mostly Sunny 55 12.8 28 -2.2 35 35 S 17 28 29.90 1012 10 16 0.00 0.00
4:53 pm 16:53 Mostly Sunny 54 12.2 30 -1.1 40 40 S 17 28 29.88 1012 10 16 0.00 0.00
5:53 pm 17:53 Partly Cloudy 54 12.2 32 0 43 43 SSE 18 30 29.85 1011 10 16 0.00 0.00
6:53 pm 18:53 Cloudy 53 11.7 27 -2.8 37 37 WSW 13 20 29.86 1011 10 16 0.00 0.00
7:00 pm 19:00 Cloudy 51 10.6 29 -1.7 43 43 W 18 30 29.91 1013 10 16 0.00 0.00
7:53 pm 19:53 Cloudy 49 9.4 31 -0.6 50 50 WSW 10 17 29.88 1012 10 16 0.00 0.00
8:53 pm 20:53 Cloudy 48 8.9 31 -0.6 52 52 W 7 11 29.91 1013 10 16 0.00 0.00
9:53 pm 21:53 Clear 44 6.7 32 0 63 63 Calm 29.94 1014 10 16 0.00 0.00
10:53 pm 22:53 Partly Cloudy 43 6.1 33 0.6 68 68 NNE 3 6 29.96 1015 10 16 0.00 0.00
11:53 pm 23:53 Mostly Cloudy 44 6.7 32 0 63 63 S 9 15 29.99 1016 10 16 0.00 0.00

Powered by AerisWeather